weather.gov     
National Weather Service

Regional Weather Roundup
NWS Homepage
This page is being discontinued on March 12, 2014.
The same data is available at this site. Please update your bookmarks.
Thank you, and we apologize for the inconvenience.
Please send an email to SR-SRH.Webmaster@noaa.gov with any concerns.


Current Version
Previous Version:    01  02  03  04  05  06  07  08  09  10  11  12  13  14  15  16  17  18  19  20  21  22  23  24  25  26  
[Printable]
111
ASUS41 KAKQ 290810
RWRAKQ

REGIONAL WEATHER ROUNDUP
NATIONAL WEATHER SERVICE WAKEFIELD VA
400 AM EDT TUE JUL 29 2014

Note: "fair" indicates few or no clouds below 12,000 feet with no
significant weather and/or obstructions to visibility. * = Denotes
station may not report precipitation (e.g., rain,snow,etc.),
thunder or fog.

VAZ042-051-052>054-056-290900-
NORTHERN VIRGINIA

CITY           SKY/WX    TMP DP  RH WIND       PRES   REMARKS
WASH NATIONAL  CLEAR     68  55  63 NW9       29.86S
DULLES         CLEAR     62  53  72 NW8       29.87S
FORT BELVOIR   CLEAR     65  56  74 NW7       29.87S
QUANTICO       CLEAR     64  55  72 N7        29.88R
FREDERICKSBRG* CLEAR     66  56  70 NW5       29.87R
STAFFORD*      CLEAR     60  60 100 NW5       29.91S
WARRENTON      CLEAR     59  58  99 CALM      29.88R
CULPEPER*      CLEAR    N/A N/A N/A CALM      29.89R
MANASSAS*      NOT AVBL
LEESBURG*      CLEAR     61  57  88 NW8       29.89S
WINCHESTER     CLEAR     59  52  77 NW9       29.89S
$$

VAZ048-049-060>072-079>083-290900-
CENTRAL AND SOUTH CENTRAL VIRGINIA...AND NORTH CENTRAL NORTH CAROLINA

CITY           SKY/WX    TMP DP  RH WIND       PRES   REMARKS
RICHMOND       CLEAR     66  57  72 CALM      29.87R
CHESTERFIELD*  SUNNY     66  48  52 N5        29.89R
HANOVER        CLEAR     63  56  78 NW3       29.89R
TAPPAHANNOCK*  CLEAR     64  56  73 CALM      29.87R
CHARLOTTSVILLE CLEAR     61  50  67 N5        29.89S
ORANGE*        CLEAR     61  52  72 CALM      29.90F
LOUISA*        PTCLDY    55  54  94 CALM      29.87S
FARMVILLE*     MOCLDY    64  52  63 CALM      29.87R
SOUTH HILL*    CLEAR     64  57  77 CALM      29.92S
ROANOKE RAPIDS NOT AVBL
RALEIGH        PTCLDY    65  56  72 CALM      29.89R
$$

VAZ088>098-290900-
SOUTHEAST VIRGINIA

CITY           SKY/WX    TMP DP  RH WIND       PRES   REMARKS
NORFOLK        CLEAR     72  60  66 NW7       29.84R
VIRGINIA BEACH PTCLDY    71  61  70 N9        29.83R
NORFOLK NAVAL  PTCLDY    71  59  65 N10       29.86R
WEST POINT*    CLEAR     68  58  70 CALM      29.87R
NEWPORT NEWS   CLEAR     72  58  61 N8        29.85R
LANGLEY AFB    CLEAR     69  60  72 NW12      29.84R
FORT EUSTIS    CLEAR     70  58  66 N7        29.83S
WILLIAMSBURG*  CLEAR     68  61  77 NW6       29.86S
FRANKLIN*      CLEAR     63  59  88 CALM      29.86R
WAKEFIELD      CLEAR     63  58  83 CALM      29.87R
$$

VAZ020-022-025-037-045-290900-
WESTERN AND SOUTHWEST VIRGINIA

CITY           SKY/WX    TMP DP  RH WIND       PRES   REMARKS
STAUNTON*      CLEAR     54  51  90 CALM      29.94S
HOT SPRINGS VA CLOUDY    50  49  95 NW6       29.98F
LYNCHBURG      CLEAR     59  55  87 CALM      29.92R
DANVILLE       CLEAR     65  56  72 NW6       29.90S
MARTINSVILLE   CLEAR     57  55  93 CALM      29.93S
ROANOKE        CLEAR     60  53  77 NW7       29.93S
BLACKSBURG     CLEAR     57  57 100 CALM      29.97S
DUBLIN*        PTCLDY    62  58  87 W5        29.96S
MARION*        LGT RAIN N/A N/A N/A W6        30.01F
HILLSVILLE*    CLEAR     57  54  88 NW8       29.97F
RICHLANDS*     CLOUDY    62  58  88 W7        30.00F
WISE*          CLOUDY    59  59 100 NW5       30.03S
ABINGDON*      MOCLDY    60  58  91 CALM      30.00F
$$

MDZ021>025-VAZ099-100-290900-
SOUTHERN MARYLAND AND THE DELMARVA PENINSULA

CITY           SKY/WX    TMP DP  RH WIND       PRES   REMARKS
PATUXENT RIVER CLEAR     68  58  70 NW13      29.84R
BAY BRIDGE APT   N/A     68  59  73 NW8       29.84S
LEONARDTOWN    CLEAR     63  55  77 W5        29.86R
DOVER          CLEAR     66  61  83 NW10      29.81R
GEORGETOWN     CLEAR     67  60  78 VRB5      29.83R
EASTON         CLEAR     68  61  78 CALM      29.87S
CAMBRIDGE      CLOUDY    72  59  64 NW6       29.83R
SALISBURY      NOT AVBL
OCEAN CITY     CLEAR     65  61  87 N5        29.82S
WALLOPS ISLAND PTCLDY    68  62  81 N5        29.84R
ACCOMACK*        N/A     70  59  68 N6        29.83R
$$

NCZ012>017-030>032-290900-
EASTERN NORTH CAROLINA

CITY           SKY/WX    TMP DP  RH WIND       PRES   REMARKS
ELIZABETH CITY CLEAR     70  61  73 NW10      29.84S
AHOSKIE*       CLEAR     62  59  92 CALM      29.87R
EDENTON*       CLEAR     67  60  76 N6        29.85S
CURRITUCK*     CLEAR     68  58  70 CALM      29.85S
KILL DEVIL HLS CLEAR     73  62  68 NW5       29.83R
MANTEO         NOT AVBL
CAPE HATTERAS  CLEAR     78  64  61 VRB5      29.82S
GOLDSBORO      MOCLDY    71  62  74 N6        29.84S
WASHINGTON     PTCLDY    67  60  78 N3        29.85S
GREENVILLE     MOCLDY    66  61  82 N3        29.88S
NEW BERN       PTCLDY    72  62  71 N6        29.86R
WILMINGTON     PTCLDY    72  66  81 NE6       29.85R
$$

VAZ048-290900-
ELSEWHERE

CITY           SKY/WX    TMP DP  RH WIND       PRES   REMARKS
HARRISBURG PA  PTCLDY    61  55  81 CALM      29.84R
BALTIMORE      PTCLDY    63  57  81 NW3       29.85R
ANNAPOLIS      CLEAR     67  59  75 W7        29.84S
ANDREWS AFB    CLEAR     65  57  74 NW9       29.85S
WILMINGTON DE  CLEAR     63  59  87 NW8       29.83R
PHILADELPHIA   CLEAR     66  55  67 NW8       29.82R
WILDWOOD NJ*   CLEAR     66  55  68 N8        29.83R
ATLANTIC CITY  CLEAR     63  57  81 NW5       29.80R
HENDERSON NC   CLEAR     64  55  72 CALM      29.89R
GREENSBORO     CLEAR     64  55  72 CALM      29.91R
ROCKY MOUNT    MOCLDY    67  58  72 N6        29.87R
FAYETTEVILLE   CLEAR     72  58  61 N7        29.87R
CHARLOTTE      MOCLDY    66  55  67 N6        29.91S
$$

VAZ100-290900-
MARINE

STATION/POSITION TIME  TEMP    WIND        PRES    WAVE   SWELL
                       AIR SEA DIR/SP/G            HT/PER HT/PER
                 (UTC) (F)     (DEG/KT/KT) (MB)    (FT/S) (FT/S)
44066 TX TWR #4  0800   71 74  310/ 14/ 16 1007.6R   6/ 7   3/ 7
CAPE MAY NJ      0800   69 78  330/  8/ 16 1009.1R
LEWES DE         0800   70 73  330/ 14/ 17 1009.5R
15NM E FENWICK I 0800   71 73              1009.2F   3/ 7
OCEAN-CITY-INLET 0800   68 68  340/  8/  9 1009.3F
WACHAPREAGUE VA  0800   71 79  360/  4/  5 1010.0R
THOMAS POINT MD  0800   67 78  330/ 10/ 12 1011.1R
GOOSES REEF MD   0800   70     340/ 14/ 17 1010.7R
COVE POINT MD    0800   69     350/ 16/ 19 1010.2R
SOLOMONS ISLAND  0800      80                N/A
BISHOPS HEAD MD  0800   69 76  330/  6/  8 1009.8S
PINEY POINT MD   0800          340/ 15/ 17   N/A
POTOMAC MD       0800   70     350/ 12/ 16 1009.8S
CAMBRIDGE MD     0800   71 79  320/ 10/ 14 1009.9R
LEWISETTA VA     0800   70 78  350/ 11/ 15 1010.4R
RAPPAHANNOCK LGT 0800          330/ 19/ 21 1010.5R
STINGRAY PT      0800   71     330/ 12/ 14 1011.2R
YORK RVR RNG VA  0800   71     340/ 14/ 16 1009.9S
YORKTOWN VA      0800   71 79  330/ 13/ 15 1010.4S
JAMESTOWN VA     0800   68     360/  6/ 10   N/A
DOMINION TERM VA 0800   71     360/  8/ 11 1010.8R
KIPTOPEKE VA     0800      81  360/  9/ 12   N/A
CHES BAY BRIDGE  0800   73 78  330/ 14/ 19 1009.9R
CAPE HENRY VA    0800   74     340/ 16/ 19 1009.0S
WILLOUBY STN VA  0800          350/ 12/ 13 1009.8S
S CRANEY ISL VA  0800          310/ 10/ 16 1010.5S
CAPE HENRY BUOY  0800      77                N/A     3/ 4
1ST LANDING BUOY 0800   74     350/ 16/ 19 1010.0R
CAPE CHARLES BUO 0800      74                N/A     2/ 9
OFFSHORE WE BUOY 0800      78                N/A     4/ 4
64NM E OF VA BCH 0800   76 78  330/ 14/ 17 1009.3R   3/ 4   2/ 8
DUCK PIER NC     0800   71 69  330/ 11/ 12 1009.5R
44056 DUCK FRF   0800                        N/A     2/17
OREGON INLET NC  0800   74 79  330/  5/  7 1010.1R
HATTERAS NC      0800   80 82   20/  4/ 13 1010.3S
DIAMOND SHLS NC  0800          VRB  8/ 10  1009.7S   3/ 7   3/ 7
CAPE LOOKOUT NC  0700   77     360/ 10/ 11 1009.7F
$$




U.S. Dept. of Commerce
NOAA National Weather Service
1325 East West Highway
Silver Spring, MD 20910
E-mail: w-nws.webmaster@noaa.gov
Page last modified: May 16, 2007
NATIONAL WEATHER SERVICE: for Safety, for Work, for Fun - FOR LIFE